VR2R-13 Weather Reports


Display with metric or nautical units.
time (UTC)temp
F
wind
direction
speed
MPH
gust
MPH
rain 1hr
in
rain 24hr
in
rain mn
in
humidity
%
barometer
mb
20260901184029 68 7 7.0 15.0 0.00 0.00 0.00 98 901.9
20260901184027 68 23 7.0 15.0 0.00 0.00 0.00 98 901.9
20260901183527 68 19 9.0 14.0 0.00 0.00 0.00 98 901.8
20260901183428 68 37 9.0 14.0 0.00 0.00 0.00 98 901.9
20260901183027 68 13 8.0 17.0 0.01 0.03 0.00 98 901.8
20260901182828 68 29 8.0 17.0 0.01 0.03 0.00 98 901.9
20260901182527 68 26 9.0 15.0 0.01 0.03 0.00 98 901.9
20260901182228 68 45 8.0 15.0 0.01 0.03 0.00 98 901.9
20260901182027 68 348 8.0 14.0 0.01 0.03 0.00 98 902.0
20260901181628 68 28 7.0 14.0 0.01 0.03 0.00 98 902.0
20260901181527 68 310 6.0 14.0 0.01 0.03 0.00 98 902.0
20260901181029 69 334 6.0 14.0 0.01 0.03 0.00 98 902.1
20260901181027 69 19 6.0 14.0 0.01 0.03 0.00 98 902.1
20260901180527 69 13 5.0 14.0 0.01 0.03 0.00 98 902.1
20260901180428 69 4 7.0 14.0 0.01 0.03 0.00 98 902.0
20260901180027 69 9 8.0 14.0 0.01 0.03 0.00 98 902.0
20260901175828 69 360 9.0 14.0 0.01 0.03 0.00 98 902.0
20260901175527 69 355 8.0 12.0 0.01 0.03 0.00 98 902.1
20260901175228 69 40 7.0 12.0 0.01 0.03 0.00 98 902.1
20260901175027 69 6 8.0 12.0 0.01 0.03 0.00 98 902.1
20260901174628 69 10 5.0 10.0 0.00 0.02 0.00 98 902.2
20260901174030 69 329 3.0 11.0 0.02 0.02 0.00 98 902.2
20260901174028 69 311 3.0 11.0 0.02 0.02 0.00 98 902.2
20260901173527 69 341 6.0 11.0 0.02 0.02 0.00 98 902.2
20260901173428 69 12 5.0 11.0 0.02 0.02 0.00 98 902.2
20260901173027 69 341 3.0 16.0 0.02 0.02 0.00 98 902.3
20260901172828 69 12 5.0 16.0 0.02 0.02 0.00 98 902.3
20260901172526 69 12 6.0 16.0 0.02 0.02 0.00 98 902.2
20260901172026 70 33 9.0 16.0 0.02 0.02 0.00 98 902.3
20260901171628 70 38 7.0 16.0 0.02 0.02 0.00 98 902.3
20260901171526 70 64 8.0 16.0 0.02 0.02 0.00 98 902.4
20260901171028 70 58 8.0 13.0 0.02 0.02 0.00 98 902.5
20260901171026 70 63 8.0 13.0 0.02 0.02 0.00 98 902.5
20260901170526 70 58 7.0 13.0 0.02 0.02 0.00 98 902.6
20260901170428 70 24 7.0 13.0 0.02 0.02 0.00 98 902.6
20260901170026 70 27 6.0 12.0 0.02 0.02 0.00 98 902.6
20260901165828 70 61 7.0 13.0 0.02 0.02 0.00 98 902.6
20260901165526 70 36 7.0 13.0 0.02 0.02 0.00 98 902.6
20260901165228 70 51 7.0 15.0 0.02 0.02 0.00 98 902.6
20260901165026 70 30 8.0 15.0 0.02 0.02 0.00 98 902.6
20260901164628 70 42 7.0 15.0 0.02 0.02 0.00 98 902.6
20260901164526 70 50 8.0 15.0 0.02 0.02 0.00 98 902.6
20260901164028 70 47 6.0 13.0 0.00 0.00 0.00 99 902.6
20260901164026 70 55 6.0 13.0 0.00 0.00 0.00 99 902.6
20260901163526 70 66 3.0 9.0 0.00 0.00 0.00 99 902.7
20260901163427 70 72 0.0 8.0 0.00 0.00 0.00 99 902.7
20260901163026 70 59 9.0 14.0 0.00 0.00 0.00 98 902.6
20260901162828 70 27 7.0 14.0 0.00 0.00 0.00 99 902.6
20260901162526 70 88 7.0 14.0 0.00 0.00 0.00 99 902.7
20260901162227 70 65 8.0 14.0 0.00 0.00 0.00 98 902.7
20260901162026 70 26 9.0 14.0 0.00 0.00 0.00 98 902.8
20260901161627 70 34 7.0 13.0 0.00 0.00 0.00 99 902.8
20260901161526 70 34 7.0 11.0 0.00 0.00 0.00 99 902.7
20260901161028 70 50 7.0 13.0 0.00 0.00 0.00 99 902.9
20260901161026 70 71 7.0 13.0 0.00 0.00 0.00 99 902.9
20260901160526 70 22 6.0 12.0 0.00 0.00 0.00 99 902.9
20260901160427 70 30 7.0 12.0 0.00 0.00 0.00 99 902.9
20260901160026 70 82 2.0 6.0 0.00 0.00 0.00 99 903.0
20260901155827 70 56 5.0 13.0 0.00 0.00 0.00 99 903.0
20260901155526 70 67 8.0 13.0 0.00 0.00 0.00 99 902.9
20260901155227 70 61 5.0 13.0 0.00 0.00 0.00 99 903.0
20260901154627 70 59 7.0 11.0 0.00 0.00 0.00 99 903.0
20260901154526 70 62 6.0 9.0 0.00 0.00 0.00 99 902.9
20260901154026 70 66 0.0 5.0 0.00 0.00 0.00 99 902.9
20260901153525 70 94 6.0 13.0 0.00 0.00 0.00 99 902.8
20260901153427 70 42 6.0 13.0 0.00 0.00 0.00 99 902.8
20260901153025 70 35 6.0 13.0 0.00 0.00 0.00 99 902.8
20260901152827 70 76 8.0 13.0 0.00 0.00 0.00 98 902.8
20260901152525 70 9 7.0 13.0 0.00 0.00 0.00 99 902.7
20260901152227 70 33 9.0 13.0 0.00 0.00 0.00 99 902.8
20260901152026 70 29 7.0 11.0 0.00 0.00 0.00 99 902.7
20260901151627 70 74 8.0 19.0 0.02 0.02 0.00 99 902.7
20260901151525 70 32 8.0 19.0 0.02 0.02 0.00 99 902.7
20260901151027 70 37 12.0 19.0 0.02 0.02 0.00 98 902.7
20260901151025 70 39 12.0 19.0 0.02 0.02 0.00 98 902.7
20260901150525 70 52 9.0 15.0 0.02 0.02 0.00 99 902.7
20260901150427 70 53 9.0 15.0 0.01 0.01 0.00 99 902.6
20260901150026 70 65 0.0 8.0 0.00 0.00 0.00 99 902.7
20260901145827 70 65 8.0 14.0 0.02 0.02 0.00 99 902.7
20260901145525 70 43 7.0 14.0 0.01 0.01 0.00 99 902.7
20260901145227 70 71 7.0 14.0 0.01 0.01 0.00 99 902.7
20260901145025 70 72 7.0 14.0 0.01 0.01 0.00 99 902.8
20260901144627 70 71 7.0 14.0 0.00 0.00 0.00 99 902.8
20260901144525 70 65 7.0 11.0 0.00 0.00 0.00 99 902.7
20260901144027 70 44 3.0 9.0 0.00 0.00 0.00 99 902.7
20260901144025 70 42 3.0 9.0 0.00 0.00 0.00 99 902.7
20260901143525 70 324 1.0 9.0 0.00 0.00 0.00 99 902.7
20260901143427 70 13 5.0 11.0 0.00 0.00 0.00 99 902.8
20260901143025 70 46 9.0 15.0 0.01 0.01 0.00 99 902.7
20260901142826 70 32 9.0 15.0 0.00 0.00 0.00 99 902.7
20260901142525 70 60 8.0 13.0 0.00 0.00 0.00 99 902.7
20260901142226 70 44 9.0 13.0 0.00 0.00 0.00 99 902.7
20260901142025 70 49 7.0 13.0 0.00 0.00 0.00 99 902.6
20260901141626 70 38 0.0 9.0 0.00 0.00 0.00 99 902.7
20260901141525 70 57 5.0 10.0 0.00 0.00 0.00 99 902.7
20260901141027 70 41 8.0 16.0 0.00 0.00 0.00 99 902.5
20260901141025 70 10 8.0 16.0 0.00 0.00 0.00 99 902.4
20260901140525 70 37 7.0 16.0 0.18 0.18 0.00 99 902.5
20260901140426 70 38 7.0 17.0 0.16 0.16 0.00 99 902.4
20260901140025 70 59 10.0 17.0 0.15 0.15 0.00 99 902.5
20260901135826 70 80 10.0 17.0 0.15 0.15 0.00 99 902.4
20260901135525 70 64 12.0 17.0 0.14 0.14 0.00 99 902.4
20260901135226 70 45 11.0 17.0 0.13 0.13 0.00 99 902.4
20260901135025 70 38 12.0 17.0 0.13 0.13 0.00 99 902.4
20260901134626 70 42 10.0 15.0 0.13 0.13 0.00 99 902.4
20260901134525 70 76 9.0 15.0 0.11 0.11 0.00 99 902.5
20260901134026 70 44 6.0 13.0 0.06 0.06 0.00 99 902.4
20260901133525 70 360 4.0 12.0 0.01 0.01 0.00 99 902.2
20260901133426 70 26 1.0 6.0 0.00 0.00 0.00 99 902.3
20260901133025 70 93 4.0 14.0 0.05 0.05 0.00 99 902.1
20260901132826 70 97 7.0 16.0 0.03 0.03 0.00 99 902.0
20260901132524 70 28 4.0 16.0 0.02 0.02 0.00 99 901.9
20260901132226 70 16 6.0 16.0 0.02 0.02 0.00 99 902.0
20260901132025 70 34 9.0 19.0 0.01 0.01 0.00 99 901.9
20260901131626 70 37 5.0 19.0 0.01 0.01 0.00 99 901.8
20260901131524 70 138 3.0 19.0 0.01 0.01 0.00 99 901.8
20260901131025 70 342 6.0 14.0 0.00 0.00 0.00 99 901.8
20260901130426 70 13 8.0 21.0 0.02 0.02 0.00 99 901.8
20260901130024 70 321 8.0 21.0 0.01 0.01 0.00 99 901.7
20260901125826 70 94 6.0 20.0 0.00 0.00 0.00 99 901.7
20260901122524 70 341 10.0 24.0 0.00 0.00 0.00 98 901.3
20260901122226 70 6 8.0 22.0 0.00 0.00 0.00 98 901.5
20260901122024 70 337 10.0 22.0 0.00 0.00 0.00 98 901.4
20260901121625 70 25 2.0 21.0 0.00 0.00 0.00 99 901.5
20260901121524 70 23 9.0 23.0 0.00 0.00 0.00 98 901.3
20260901121026 70 360 12.0 23.0 0.00 0.00 0.00 98 901.1
20260901121024 70 353 12.0 23.0 0.00 0.00 0.00 98 901.2
20260901120524 70 16 8.0 20.0 0.00 0.00 0.00 99 901.4
20260901120425 70 353 7.0 20.0 0.00 0.00 0.00 99 901.3
20260901120024 70 330 2.0 17.0 0.00 0.00 0.00 99 901.4
20260901115825 70 93 8.0 19.0 0.00 0.00 0.00 99 901.3
20260901115524 70 12 8.0 19.0 0.00 0.00 0.00 98 901.4
20260901115225 70 348 9.0 19.0 0.00 0.00 0.00 98 901.2
20260901114625 70 17 1.0 10.0 0.00 0.00 0.00 99 901.3
20260901114025 70 54 7.0 16.0 0.00 0.00 0.00 98 901.1
20260901113524 70 79 4.0 14.0 0.00 0.00 0.00 99 901.1
20260901113425 70 51 1.0 7.0 0.00 0.00 0.00 99 901.1
20260901113024 70 37 7.0 17.0 0.00 0.00 0.00 98 901.0
20260901112825 70 12 6.0 17.0 0.00 0.00 0.00 98 901.1
20260901112524 70 7 7.0 15.0 0.00 0.00 0.00 98 901.1
20260901112225 70 44 5.0 15.0 0.00 0.00 0.00 98 901.1
20260901112024 70 29 6.0 15.0 0.00 0.00 0.00 98 901.2
20260901111625 70 58 7.0 19.0 0.00 0.00 0.00 98 901.1
20260901111523 70 44 8.0 19.0 0.00 0.00 0.00 98 901.0
20260901111025 70 6 8.0 19.0 0.00 0.00 0.00 98 901.1
20260901110524 70 28 1.0 13.0 0.00 0.00 0.00 99 901.1
20260901110425 70 11 9.0 17.0 0.00 0.00 0.00 98 901.2
20260901110024 70 42 8.0 16.0 0.00 0.00 0.00 98 901.1
20260901105825 70 4 1.0 9.0 0.00 0.00 0.00 99 901.2
20260901105524 70 29 9.0 20.0 0.00 0.00 0.00 99 901.0
20260901105225 70 10 7.0 17.0 0.00 0.00 0.00 99 901.2
20260901105023 70 25 7.0 17.0 0.00 0.00 0.00 99 901.1
20260901104625 70 37 9.0 17.0 0.00 0.00 0.00 99 901.1
20260901104523 70 34 8.0 15.0 0.00 0.00 0.00 99 901.1
20260901104025 70 48 7.0 13.0 0.00 0.00 0.00 99 901.2
20260901103524 70 59 4.0 12.0 0.00 0.00 0.00 99 901.2
20260901103425 70 28 4.0 12.0 0.00 0.00 0.00 99 901.2
20260901103023 70 60 4.0 15.0 0.01 0.01 0.00 99 901.1
20260901102825 70 348 8.0 15.0 0.00 0.00 0.00 99 901.1
20260901102523 70 52 6.0 15.0 0.00 0.00 0.00 99 901.1
20260901102224 70 46 7.0 13.0 0.00 0.00 0.00 99 901.1
20260901102023 70 22 5.0 8.0 0.00 0.00 0.00 99 901.2
20260901101624 69 32 0.0 10.0 0.00 0.00 0.00 99 901.1
20260901101523 70 12 3.0 15.0 0.00 0.00 0.00 98 901.1
20260901101025 70 355 6.0 15.0 0.00 0.00 0.00 98 901.1
20260901101023 70 9 6.0 15.0 0.00 0.00 0.00 98 901.0
20260901100523 70 31 8.0 14.0 0.00 0.00 0.00 98 901.0
20260901100424 70 51 7.0 13.0 0.00 0.00 0.00 98 901.1
20260901100023 70 47 6.0 15.0 0.00 0.00 0.00 98 901.0
20260901095824 70 36 5.0 15.0 0.00 0.00 0.00 99 901.0
20260901095523 70 41 7.0 15.0 0.00 0.00 0.00 98 900.9
20260901095225 70 38 8.0 15.0 0.00 0.00 0.00 98 900.9
20260901095023 70 35 8.0 14.0 0.00 0.00 0.00 99 900.8
20260901094624 70 47 4.0 12.0 0.00 0.00 0.00 99 900.9
20260901094024 70 39 3.0 14.0 0.00 0.00 0.00 99 900.8
20260901093523 71 60 8.0 13.0 0.00 0.00 0.00 99 900.9
20260901093424 71 11 8.0 13.0 0.00 0.00 0.00 99 900.9
20260901093023 71 39 9.0 13.0 0.00 0.00 0.00 99 900.9
20260901092824 71 43 5.0 13.0 0.00 0.00 0.00 99 900.9
20260901092523 71 63 6.0 10.0 0.00 0.00 0.00 99 900.9
20260901092224 71 74 5.0 11.0 0.00 0.00 0.00 99 900.8
20260901092025 71 48 0.0 0.0 0.00 0.00 0.00 99 900.8
20260901091624 71 57 9.0 14.0 0.00 0.00 0.00 99 900.7
20260901091523 71 47 9.0 14.0 0.00 0.00 0.00 99 900.7
20260901091024 71 41 6.0 13.0 0.00 0.00 0.00 99 900.8
20260901090523 71 62 7.0 11.0 0.00 0.00 0.00 99 900.8
20260901090424 71 22 5.0 11.0 0.00 0.00 0.00 99 900.8
20260901090023 71 51 9.0 12.0 0.00 0.00 0.00 99 900.8
20260901085824 71 47 0.0 10.0 0.00 0.00 0.00 99 900.8
20260901085523 71 51 9.0 15.0 0.00 0.00 0.00 99 900.7
20260901085224 71 18 10.0 15.0 0.00 0.00 0.00 99 900.6
20260901085022 71 66 10.0 15.0 0.00 0.00 0.00 99 900.7
20260901084624 71 45 10.0 16.0 0.00 0.00 0.00 99 900.7
20260901084522 71 38 10.0 16.0 0.00 0.00 0.00 99 900.6
20260901084024 71 65 10.0 16.0 0.00 0.00 0.00 99 900.6
20260901084022 71 40 10.0 16.0 0.00 0.00 0.00 99 900.6
20260901083524 70 69 9.0 15.0 0.00 0.00 0.00 99 900.6
20260901083424 70 50 10.0 18.0 0.00 0.00 0.00 99 900.6
20260901083022 70 23 10.0 18.0 0.00 0.00 0.00 99 900.6
20260901082824 70 7 10.0 18.0 0.00 0.00 0.00 99 900.6
20260901082522 70 57 10.0 18.0 0.00 0.00 0.00 99 900.6
20260901082223 70 41 11.0 17.0 0.00 0.00 0.00 99 900.5
20260901082022 70 71 11.0 17.0 0.00 0.00 0.00 99 900.6
20260901081623 70 72 11.0 17.0 0.00 0.00 0.00 99 900.5
20260901081522 70 53 11.0 17.0 0.00 0.00 0.00 99 900.5
20260901080522 70 58 11.0 18.0 0.00 0.00 0.00 99 900.4
20260901080423 70 44 11.0 18.0 0.00 0.00 0.00 99 900.4
20260901080022 70 62 14.0 18.0 0.00 0.00 0.00 98 900.3
20260901075823 70 59 13.0 18.0 0.00 0.00 0.00 99 900.3
20260901075522 70 51 0.0 17.0 0.00 0.00 0.00 99 900.2
20260901075223 70 53 12.0 20.0 0.00 0.00 0.00 99 900.3
20260901075022 70 40 4.0 20.0 0.00 0.00 0.00 99 900.2
20260901074623 70 51 15.0 21.0 0.00 0.00 0.00 99 900.3
20260901074522 70 41 17.0 21.0 0.00 0.00 0.00 99 900.3
20260901074024 70 46 0.0 14.0 0.00 0.00 0.00 99 900.3
20260901073423 70 69 12.0 23.0 0.00 0.00 0.00 99 900.4
20260901072823 69 59 17.0 23.0 0.00 0.00 0.00 99 900.4
20260901072223 69 63 10.0 23.0 0.00 0.00 0.00 99 900.4
20260901072022 69 39 6.0 25.0 0.00 0.00 0.00 99 900.3
20260901071623 69 69 18.0 26.0 0.00 0.00 0.00 99 900.3
20260901070423 69 70 23.0 31.0 0.00 0.00 0.00 98 900.0
20260901065823 69 50 7.0 25.0 0.00 0.00 0.00 98 900.2
20260901065223 69 47 25.0 33.0 0.00 0.00 0.00 98 899.7
20260901064023 69 50 8.0 23.0 0.00 0.00 0.00 99 900.2
20260901063423 69 55 0.0 28.0 0.00 0.00 0.00 99 899.8
20260901063021 69 42 23.0 36.0 0.00 0.00 0.00 98 900.0
20260901062823 69 39 27.0 35.0 0.00 0.00 0.00 98 899.6
20260901062521 69 58 6.0 34.0 0.00 0.00 0.00 98 900.0
20260901062223 69 48 25.0 34.0 0.00 0.00 0.00 98 900.1
20260901062021 69 68 26.0 33.0 0.00 0.00 0.00 98 900.2
20260901061622 69 56 18.0 32.0 0.00 0.00 0.00 98 900.2
20260901061522 69 45 6.0 32.0 0.00 0.00 0.00 99 900.1
20260901061024 69 67 26.0 32.0 0.00 0.00 0.00 98 899.9
20260901060521 69 47 11.0 32.0 0.00 0.00 0.00 98 900.1
20260901060422 69 35 30.0 37.0 0.01 0.01 0.00 98 900.0
20260901060021 69 45 25.0 34.0 0.00 0.00 0.00 98 900.1
20260901055822 69 61 26.0 34.0 0.00 0.00 0.00 98 900.3
20260901055521 69 64 15.0 29.0 0.00 0.00 0.00 98 900.1
20260901055222 69 56 26.0 34.0 0.00 0.00 0.00 98 900.4
20260901055021 69 64 22.0 30.0 0.00 0.00 0.00 98 900.5
20260901054622 69 56 25.0 30.0 0.00 0.00 0.00 98 900.2
20260901054521 69 32 15.0 30.0 0.00 0.00 0.00 98 900.0
20260901054023 69 45 28.0 36.0 0.00 0.00 0.00 98 900.4
20260901054021 69 50 27.0 36.0 0.00 0.00 0.00 98 900.3
20260901053521 69 64 5.0 29.0 0.00 0.00 0.00 99 900.7
20260901053422 69 45 27.0 36.0 0.10 0.10 0.00 98 900.3
20260901053021 69 51 26.0 35.0 0.10 0.10 0.00 98 900.5
20260901052822 69 47 25.0 35.0 0.09 0.09 0.00 98 900.7
20260901052521 69 50 25.0 34.0 0.09 0.09 0.00 98 900.6
20260901052222 69 55 26.0 34.0 0.09 0.09 0.00 98 900.8
20260901052021 69 58 25.0 34.0 0.09 0.09 0.00 98 900.9
20260901051622 69 63 26.0 34.0 0.09 0.09 0.00 98 901.1
20260901051022 69 43 25.0 33.0 0.07 0.07 0.00 98 900.9
20260901050521 69 58 25.0 35.0 0.07 0.07 0.00 99 901.1
20260901050422 69 60 24.0 35.0 0.07 0.07 0.00 99 901.1
20260901050021 69 72 26.0 36.0 0.06 0.06 0.00 99 901.2
20260901045822 69 54 25.0 36.0 0.06 0.06 0.00 99 901.1
20260901045222 69 62 26.0 36.0 0.03 0.03 0.00 99 901.5
20260901044622 69 70 26.0 36.0 0.00 0.00 0.00 99 900.9
20260901044521 69 60 13.0 36.0 0.00 0.00 0.00 99 901.4
20260901040520 69 55 27.0 36.0 0.03 0.03 0.00 98 901.1
20260901040421 69 52 22.0 35.0 0.02 0.02 0.00 98 901.3
20260901035821 69 80 25.0 34.0 0.05 0.05 0.00 98 901.6
20260901035021 69 49 6.0 32.0 0.00 0.00 0.00 99 901.5
20260901034621 69 64 26.0 35.0 0.03 0.03 0.00 98 901.7
20260901034520 69 45 23.0 29.0 0.02 0.02 0.00 98 901.4
20260901034022 69 52 23.0 33.0 0.07 0.07 0.00 98 901.7
20260901034020 69 61 23.0 33.0 0.07 0.07 0.00 98 901.7
20260901033520 69 45 25.0 33.0 0.03 0.03 0.00 98 901.7
20260901033421 69 50 23.0 33.0 0.03 0.03 0.00 98 901.7
20260901033020 69 58 6.0 26.0 0.00 0.00 0.00 98 901.8
20260901032821 69 55 25.0 32.0 0.07 0.07 0.00 98 901.8
20260901032520 69 46 26.0 32.0 0.06 0.06 0.00 98 901.7
20260901032221 69 31 22.0 29.0 0.03 0.03 0.00 98 902.0
20260901032020 69 55 23.0 29.0 0.03 0.03 0.00 98 902.0
20260901031621 69 62 20.0 28.0 0.01 0.01 0.00 98 902.0
20260901031520 69 45 18.0 28.0 0.01 0.01 0.00 98 901.9
20260901031021 69 56 20.0 28.0 0.00 0.00 0.00 99 902.1
20260901030520 69 53 21.0 26.0 0.03 0.03 0.00 98 902.1
20260901030421 69 54 20.0 26.0 0.03 0.03 0.00 98 902.1
20260901030020 69 49 17.0 24.0 0.01 0.01 0.00 98 902.3
20260901025821 69 54 11.0 22.0 0.00 0.00 0.00 98 902.4
20260901025520 69 47 19.0 24.0 0.01 0.01 0.00 98 902.2
20260901025221 69 44 10.0 22.0 0.00 0.00 0.00 98 902.3
20260901025020 69 58 12.0 24.0 0.00 0.00 0.00 98 902.4
20260901024621 69 55 16.0 24.0 0.07 0.07 0.00 98 902.3
20260901024520 69 70 16.0 24.0 0.07 0.07 0.00 98 902.4
20260901024021 69 49 17.0 24.0 0.03 0.03 0.00 98 902.4
20260901023519 70 49 18.0 22.0 0.02 0.02 0.00 98 902.3
20260901023421 70 52 17.0 22.0 0.02 0.02 0.00 98 902.3
20260901023019 70 43 18.0 22.0 0.02 0.02 0.00 98 902.3
20260901022821 70 58 15.0 22.0 0.01 0.01 0.00 98 902.3
20260901022520 69 57 4.0 20.0 0.00 0.00 0.00 98 902.4
20260901022221 70 45 15.0 25.0 0.02 0.02 0.00 98 902.4
20260901022020 69 62 17.0 25.0 0.01 0.01 0.00 98 902.4
20260901021621 69 58 15.0 22.0 0.01 0.01 0.00 98 902.3
20260901021519 69 51 15.0 22.0 0.01 0.01 0.00 98 902.4
20260901021021 69 56 16.0 22.0 0.00 0.00 0.00 98 902.3
20260901021019 69 49 16.0 22.0 0.00 0.00 0.00 98 902.3
20260901020519 69 82 14.0 20.0 0.00 0.00 0.00 98 902.3
20260901020421 69 34 14.0 20.0 0.00 0.00 0.00 98 902.3
20260901015519 70 45 5.0 17.0 0.00 0.00 0.00 98 902.3
20260901015220 69 57 16.0 21.0 0.00 0.00 0.00 98 902.2
20260901015019 69 45 16.0 21.0 0.00 0.00 0.00 98 902.2
20260901014620 70 31 16.0 20.0 0.00 0.00 0.00 98 902.3
20260901014520 70 73 16.0 20.0 0.00 0.00 0.00 98 902.4
20260901014021 70 52 15.0 19.0 0.00 0.00 0.00 98 902.4
20260901014019 70 52 15.0 19.0 0.00 0.00 0.00 98 902.3
20260901013519 69 33 1.0 15.0 0.00 0.00 0.00 98 902.4
20260901013420 70 59 14.0 20.0 0.00 0.00 0.00 98 902.3
20260901013019 70 54 14.0 20.0 0.00 0.00 0.00 98 902.4
20260901012820 69 66 15.0 20.0 0.00 0.00 0.00 98 902.5
20260901012519 69 58 14.0 19.0 0.00 0.00 0.00 98 902.4
20260901012220 69 49 14.0 18.0 0.00 0.00 0.00 98 902.5
20260901012019 69 61 5.0 17.0 0.00 0.00 0.00 98 902.5
20260901011620 70 63 14.0 19.0 0.01 0.01 0.00 98 902.5
20260901011519 70 56 12.0 19.0 0.01 0.01 0.00 98 902.6
20260901011021 70 39 14.0 18.0 0.00 0.00 0.00 98 902.6
20260901011019 70 60 14.0 18.0 0.00 0.00 0.00 98 902.6
20260901010519 70 56 12.0 17.0 0.01 0.01 0.00 98 902.7
20260901010420 70 50 11.0 17.0 0.01 0.01 0.00 98 902.7
20260901010019 69 51 12.0 15.0 0.01 0.01 0.00 98 902.6
20260901005820 70 80 10.0 15.0 0.01 0.01 0.00 98 902.7
20260901005519 70 55 9.0 15.0 0.00 0.00 0.00 98 902.7
20260901005220 70 55 9.0 14.0 0.00 0.00 0.00 98 902.7
20260901005019 69 59 10.0 13.0 0.00 0.00 0.00 98 902.7
20260901004620 69 63 7.0 13.0 0.00 0.00 0.00 98 902.7
20260901004519 69 44 5.0 13.0 0.00 0.00 0.00 98 902.7
20260901004020 69 55 8.0 16.0 0.02 0.02 0.00 98 902.6
20260901003519 69 19 8.0 16.0 0.02 0.02 0.00 98 902.6
20260901003420 69 44 8.0 16.0 0.01 0.01 0.00 98 902.6
20260901003019 69 34 12.0 16.0 0.01 0.01 0.00 98 902.6
20260901002820 70 55 10.0 14.0 0.01 0.01 0.00 98 902.5
20260901002519 70 62 8.0 14.0 0.01 0.01 0.00 98 902.5
20260901002220 70 63 11.0 14.0 0.00 0.00 0.00 98 902.5
20260901002020 70 51 5.0 14.0 0.00 0.00 0.00 98 902.5
20260901001620 69 71 10.0 16.0 0.01 0.01 0.00 98 902.5
20260901001518 69 52 9.0 13.0 0.01 0.01 0.00 98 902.5
20260901001020 69 34 7.0 12.0 0.00 0.00 0.00 98 902.5
20260901001018 69 39 7.0 12.0 0.00 0.00 0.00 98 902.5
20260901000518 69 38 7.0 12.0 0.01 0.01 0.00 98 902.4
20260901000420 69 70 7.0 12.0 0.00 0.00 0.00 98 902.5
20260901000018 69 19 8.0 12.0 0.00 0.00 0.00 98 902.4
20260831235219 69 47 13.0 16.0 0.01 0.01 0.00 98 902.3
20260831235018 69 37 11.0 16.0 0.01 0.01 0.00 98 902.3
20260831234619 69 31 11.0 19.0 0.00 0.00 0.00 98 902.3
20260831234518 69 59 11.0 19.0 0.00 0.00 0.00 98 902.3
20260831234020 69 59 12.0 19.0 0.00 0.00 0.00 98 902.2
20260831234018 69 51 12.0 19.0 0.00 0.00 0.00 98 902.2
20260831233520 69 63 10.0 15.0 0.00 0.00 0.00 98 902.2
20260831233419 69 60 10.0 15.0 0.00 0.00 0.00 98 902.2
20260831233018 69 71 2.0 13.0 0.00 0.00 0.00 99 902.1
20260831232518 69 41 14.0 19.0 0.00 0.00 0.00 98 901.9
20260831232219 69 31 15.0 19.0 0.00 0.00 0.00 98 901.9
20260831232018 69 44 1.0 18.0 0.00 0.00 0.00 98 901.8
20260831231619 69 52 14.0 18.0 0.00 0.00 0.00 98 901.8
20260831231518 69 49 7.0 18.0 0.00 0.00 0.00 98 901.8
20260831231020 69 51 15.0 20.0 0.00 0.00 0.00 98 901.8
20260831231018 69 53 15.0 20.0 0.00 0.00 0.00 98 901.8
20260831230518 69 53 15.0 20.0 0.00 0.00 0.00 98 901.7
20260831230419 69 32 14.0 20.0 0.00 0.00 0.00 98 901.6
20260831230018 69 49 13.0 18.0 0.00 0.00 0.00 98 901.7
20260831225819 69 45 13.0 21.0 0.00 0.00 0.00 98 901.7
20260831225518 69 53 15.0 21.0 0.00 0.00 0.00 98 901.7
20260831225219 69 38 13.0 21.0 0.00 0.00 0.00 98 901.7
20260831225018 69 64 15.0 21.0 0.00 0.00 0.00 98 901.7
20260831224619 69 49 15.0 20.0 0.00 0.00 0.00 98 901.5
20260831224518 69 42 14.0 18.0 0.00 0.00 0.00 98 901.6
20260831224019 69 47 12.0 17.0 0.00 0.00 0.00 98 901.6
20260831223518 69 42 12.0 17.0 0.00 0.00 0.00 98 901.6
20260831223419 69 55 12.0 17.0 0.00 0.00 0.00 98 901.6
20260831223018 69 42 12.0 17.0 0.00 0.00 0.00 98 901.6
20260831222819 69 51 12.0 17.0 0.00 0.00 0.00 98 901.6
20260831222518 69 41 13.0 17.0 0.00 0.00 0.00 98 901.6
20260831222219 69 57 12.0 17.0 0.00 0.00 0.00 98 901.7
20260831222018 69 58 12.0 15.0 0.00 0.00 0.00 98 901.7
20260831221619 69 40 10.0 14.0 0.00 0.00 0.00 98 901.6
20260831221518 69 38 11.0 14.0 0.00 0.00 0.00 98 901.6
20260831221019 69 40 12.0 17.0 0.00 0.00 0.00 98 901.5
20260831221017 69 40 12.0 17.0 0.00 0.00 0.00 98 901.6
20260831220517 69 55 10.0 17.0 0.00 0.00 0.00 98 901.6
20260831220419 69 43 10.0 17.0 0.00 0.00 0.00 98 901.6
20260831220017 69 53 12.0 17.0 0.00 0.00 0.00 98 901.6
20260831215819 69 50 12.0 16.0 0.00 0.00 0.00 98 901.6
20260831215518 69 47 10.0 16.0 0.00 0.00 0.00 98 901.6
20260831215219 69 41 11.0 19.0 0.00 0.00 0.00 98 901.6
20260831215017 69 48 11.0 20.0 0.00 0.00 0.00 98 901.6
20260831214619 69 54 13.0 20.0 0.00 0.00 0.00 98 901.6
20260831214517 69 60 14.0 20.0 0.00 0.00 0.00 98 901.5
20260831214019 69 70 12.0 19.0 0.00 0.00 0.00 98 901.5
20260831214017 69 57 12.0 19.0 0.00 0.00 0.00 98 901.5
20260831213517 69 28 11.0 15.0 0.00 0.00 0.00 98 901.5
20260831213418 69 49 10.0 15.0 0.00 0.00 0.00 98 901.5
20260831213017 69 36 10.0 18.0 0.01 0.01 0.00 98 901.4
20260831212818 69 55 12.0 18.0 0.01 0.01 0.00 98 901.4
20260831212517 69 58 10.0 17.0 0.01 0.01 0.00 98 901.3
20260831212218 69 64 9.0 17.0 0.01 0.01 0.00 98 901.3
20260831212018 69 50 10.0 18.0 0.01 0.01 0.00 98 901.3
20260831211517 69 35 10.0 18.0 0.01 0.01 0.00 98 901.3
20260831211019 69 52 10.0 16.0 0.00 0.00 0.00 98 901.3
20260831211017 69 45 10.0 16.0 0.00 0.00 0.00 98 901.2
20260831210517 69 46 10.0 16.0 0.00 0.00 0.00 98 901.3
20260831210418 69 39 10.0 16.0 0.00 0.00 0.00 98 901.2
20260831210017 69 53 10.0 18.0 0.00 0.00 0.00 98 901.2
20260831205818 69 61 11.0 18.0 0.00 0.00 0.00 98 901.3
20260831205517 69 71 13.0 18.0 0.00 0.00 0.00 98 901.2
20260831205218 69 37 10.0 19.0 0.00 0.00 0.00 98 901.1
20260831205017 69 65 10.0 19.0 0.00 0.00 0.00 98 901.2
20260831204618 69 23 11.0 19.0 0.00 0.00 0.00 98 901.1
20260831204517 69 36 12.0 19.0 0.00 0.00 0.00 98 901.2
20260831204018 69 56 10.0 17.0 0.00 0.00 0.00 98 901.3
20260831203517 69 56 10.0 18.0 0.00 0.00 0.00 98 901.3
20260831203418 69 64 10.0 18.0 0.00 0.00 0.00 98 901.3
20260831203017 69 33 10.0 18.0 0.00 0.00 0.00 98 901.3
20260831202818 69 44 10.0 18.0 0.00 0.00 0.00 98 901.3
20260831202517 69 62 12.0 16.0 0.00 0.00 0.00 98 901.3
20260831202218 69 90 10.0 19.0 0.00 0.00 0.00 98 901.2
20260831202016 69 21 10.0 19.0 0.00 0.00 0.00 98 901.2
20260831201618 69 68 11.0 19.0 0.00 0.00 0.00 98 901.3
20260831201516 69 58 12.0 19.0 0.00 0.00 0.00 98 901.3
20260831201018 69 51 13.0 18.0 0.00 0.00 0.00 98 901.3
20260831201016 69 50 13.0 18.0 0.00 0.00 0.00 98 901.3
20260831200516 69 61 11.0 17.0 0.00 0.00 0.00 98 901.4
20260831200418 69 62 11.0 17.0 0.00 0.00 0.00 98 901.5
20260831195818 69 42 11.0 17.0 0.00 0.00 0.00 98 901.5
20260831195516 69 18 10.0 14.0 0.00 0.00 0.00 98 901.5
20260831194617 69 65 15.0 23.0 0.02 0.02 0.00 98 901.4
20260831194018 69 66 15.0 23.0 0.02 0.02 0.00 98 901.5
20260831194016 69 55 15.0 23.0 0.02 0.02 0.00 98 901.5
20260831193516 69 49 13.0 19.0 0.01 0.01 0.00 98 901.5
20260831193418 69 42 12.0 19.0 0.01 0.01 0.00 98 901.5
20260831193016 69 52 14.0 19.0 0.01 0.01 0.00 98 901.4
20260831192818 69 49 13.0 19.0 0.01 0.01 0.00 98 901.5
20260831192516 69 66 11.0 18.0 0.01 0.01 0.00 98 901.6
20260831192217 69 54 12.0 18.0 0.01 0.01 0.00 98 901.5
20260831192016 69 27 12.0 17.0 0.00 0.00 0.00 98 901.5
20260831191617 69 44 10.0 17.0 0.00 0.00 0.00 98 901.7
20260831191516 69 57 11.0 19.0 0.00 0.00 0.00 98 901.7
20260831191018 69 58 10.0 19.0 0.00 0.00 0.00 98 901.7
20260831191016 69 79 10.0 19.0 0.00 0.00 0.00 98 901.7
20260831190516 69 49 12.0 18.0 0.00 0.00 0.00 98 901.6
20260831190417 69 49 11.0 17.0 0.00 0.00 0.00 98 901.7
20260831190016 69 58 12.0 18.0 0.00 0.00 0.00 98 901.7
20260831185817 69 45 12.0 17.0 0.00 0.00 0.00 98 901.6
20260831185516 69 51 10.0 18.0 0.00 0.00 0.00 98 901.7
20260831185016 69 42 12.0 18.0 0.00 0.00 0.00 98 901.7
20260831184617 69 53 13.0 19.0 0.00 0.00 0.00 98 901.7
20260831184516 69 54 13.0 19.0 0.00 0.00 0.00 98 901.6